Location: Home
(42.5358°N, 72.7383°W)
Time: 14:26:05
(UTC-05:00)

Vanguard 3 - Pass Details

Date: 03 December 2021
Orbit: 508 x 3260 km, 33.3° (Epoch: 20 January)

Event Time Altitude Azimuth Distance (km) Brightness Sun altitude
Rises 06:49:15 0° 266° (W) 7,203 11.4 -3.1°
Reaches altitude 10° 06:54:26 10° 263° (W) 6,062 11.1 -2.3°
Maximum altitude 07:11:57 57° 192° (SSW) 2,718 10.0 0.5°
Drops below altitude 10° 07:22:50 10° 118° (ESE) 3,926 13.1 2.2°
Sets 07:25:27 0° 114° (ESE) 4,607 13.4 2.6°
